User: anonymous
Location: Caltech
(34.1382°N, 118.1253°W)
Time: 02:26:12
(UTC-07:00)
Language:

RS-15 - Orbit

View from above orbital plane
View from above orbital plane
View from above satellite
View from above satellite

Ground track
Ground track

The orbit data is extracted from the following two-line orbital elements,

1 23439U 94085A   14107.91289549 -.00000039  00000-0  10000-3 0  6687
2 23439 064.8183 289.2034 0145739 094.3391 267.4200 11.27561339795201
Epoch (UTC): 17 April 2014 21:54:34
Eccentricity: 0.0145739
inclination: 64.8183°
perigee height: 1900 km
apogee height: 2145 km
right ascension of ascending node: 289.2034°
argument of perigee: 94.3391°
revolutions per day: 11.27561339
mean anomaly at epoch: 267.4200°
orbit number at epoch: 79520

The dashed part of the orbit path shows where the satellite is in the earth's shadow,  

DLR